MOLNIYA 1-40

Last updated on Mon Jun 26 2023 00:03:02 GMT+0000 (Coordinated Universal Time)

1 10925U 78055A 23175.56273584 .00000241 00000+0 00000+0 0 9995 2 10925 63.7140 355.0689 7256287 280.6017 11.7777 2.00523825330178
UTC large
Height (km)
Speed (km/s)
/
Latitude / Longitude
Inclination (degrees)
Orbital Period (minutes)
Azimuth
Elevation
Range (km)
Doppler Factor

Next 0 passes for location: London (51.5072 / 0.1276)

Sorry there are no passes over London.
MOLNIYA 1-40